Regional Weather Roundup
Issued by NWS Wakefield, VA

Home | Current Version | Previous Version | Text Only | Print | Product List | Glossary Off
Versions: 1 2 3 4 5 6 7 8 9 10 11 12 13 14 15 16 17 18 19 20 21 22 23 24 25 26 27 28 29 30 31 32 33 34 35 36 37 38 39 40 41 42 43 44 45 46 47 48 49 50

321
ASUS41 KAKQ 240115
RWRAKQ

REGIONAL WEATHER ROUNDUP
NATIONAL WEATHER SERVICE WAKEFIELD VA
900 PM EDT MON MAY 23 2016

Note: "fair" indicates few or no clouds below 12,000 feet with no
significant weather and/or obstructions to visibility. * = Denotes
station may not report precipitation (e.g., rain,snow,etc.),
thunder or fog.

VAZ042-051-052>054-056-240200-
NORTHERN VIRGINIA

CITY           SKY/WX    TMP DP  RH WIND       PRES   REMARKS
WASH NATIONAL  CLOUDY    61  58  90 S13       29.93F
DULLES         MOCLDY    59  57  93 SW8       29.94F
FORT BELVOIR   FAIR      58  56  93 SE3       29.94S
QUANTICO       LGT RAIN  60  57  89 SW3       29.96F
FREDERICKSBRG* MOCLDY    59  59 100 CALM      29.96F
STAFFORD*      LGT RAIN  57  56  94 SW3       30.00F
WARRENTON      CLOUDY    59  55  85 CALM      29.97S
CULPEPER*      MOCLDY    58  58 100 CALM      29.99S
MANASSAS*      CLOUDY    59  57  94 CALM      29.96F
LEESBURG*      CLOUDY    61  61 100 W7        29.96F
WINCHESTER     LGT RAIN  61  52  72 CALM      29.97S
FRONT ROYAL*   CLOUDY    61  54  77 CALM      29.96S
LURAY*         MOCLDY    63  52  67 N5        29.98R
$$

VAZ048-049-060>072-079>083-240200-
CENTRAL AND SOUTH CENTRAL VIRGINIA

CITY           SKY/WX    TMP DP  RH WIND       PRES   REMARKS
RICHMOND       CLOUDY    63  55  75 NW7       29.96R
CHESTERFIELD*  MOCLDY    63  46  55 N3        29.98R
PETERSBURG*    CLOUDY    60  60 100 CALM      29.97S
HANOVER        CLOUDY    61  55  81 N7        29.98R
TAPPAHANNOCK*  LGT RAIN  60  56  88 NW6       29.95F
QUINTON*       CLOUDY    61  58  88 NW7       29.95R
CHARLOTTSVILLE CLOUDY    62  56  80 SE6       29.98R
GORDONSVILLE*  MOCLDY    58  58  99 CALM      29.98S
ORANGE*        FAIR      57  57 100 CALM      30.00F
LOUISA*        LGT RAIN  63  61  94 NW5       29.98R
BUMPASS*       CLOUDY    59  58  94 CALM      29.98S
FARMVILLE*     FAIR      62  55  76 CALM      29.97S
CREWE*         FAIR      57  57 100 CALM      29.97S
FORT PICKETT*  NOT AVBL
CHASE CITY*    FAIR      57  56  94 CALM      29.99S
CLARKSVILLE*   FAIR      55  55 100 CALM      29.99S
SOUTH HILL*    MOCLDY    56  55  96 CALM      30.04S
LAWRENCEVILLE* CLOUDY    59  55  85 CALM      29.97S
EMPORIA*         N/A     57  55  94 CALM      29.99S
$$

VAZ088>098-240200-
SOUTHEAST VIRGINIA

CITY           SKY/WX    TMP DP  RH WIND       PRES   REMARKS
NORFOLK        MOCLDY    58  54  86 SW3       29.94R
VIRGINIA BEACH MOCLDY    64  52  64 CALM      29.94R
NORFOLK NAVAL  CLOUDY    60  55  83 CALM      29.95S
WEST POINT*    CLOUDY    62  57  84 W7        29.96R
SALUDA*        CLOUDY    60  60  99 CALM      29.93S
NEWPORT NEWS   CLOUDY    62  53  72 SW6       29.94S
LANGLEY AFB    LGT RAIN  62  55  80 SW2       29.93F
FORT EUSTIS    MOCLDY    63  52  68 W2        29.93R
WILLIAMSBURG*  FAIR      61  57  88 CALM      29.95S
HR EXEC AP*      N/A     59  55  88 CALM      29.97S
FRANKLIN*      CLOUDY    59  55  88 W3        29.96S
US460-WAKEFLD  FAIR      62  56  80 CALM      29.96R
$$

VAZ020-022-025-037-045-240200-
WEST CENTRAL AND SOUTHWEST VIRGINIA

CITY           SKY/WX    TMP DP  RH WIND       PRES   REMARKS
STAUNTON*      LGT RAIN  61  56  85 W7        30.02R
WAYNESBORO*    MOCLDY    62  50  66 W5        30.00R
HOT SPRINGS VA FAIR      55  50  84 W6        30.06R
LYNCHBURG      FAIR      57  55  93 SW3       30.01R
DANVILLE       FAIR      55  52  89 CALM      30.01R
SOUTH BOSTON*  FAIR      57  56  96 CALM      30.00S
MARTINSVILLE   FAIR      53  52  95 CALM      30.05S
ROANOKE        MOCLDY    57  55  93 W3        30.04R
BLACKSBURG     MOCLDY    58  54  85 CALM      30.08R
DUBLIN*        FAIR      56  53  89 W3        30.07R
MARION*        FAIR      58  49  71 CALM      30.10R
HILLSVILLE*    FAIR      55  50  81 CALM      30.07R
RICHLANDS*     FAIR      60  30  32 CALM      30.08S
WISE*          FAIR      61  41  48 CALM      30.09S
ABINGDON*      FAIR      60  51  72 CALM      30.07R
$$

MDZ021>025-VAZ099-100-240200-
SOUTHERN MARYLAND AND THE DELMARVA PENINSULA

CITY           SKY/WX    TMP DP  RH WIND       PRES   REMARKS
PATUXENT RIVER CLOUDY    60  54  80 NW6       29.94R
BAY BRIDGE APT CLOUDY    61  55  82 NW3       29.94S
LEONARDTOWN    PTCLDY    55  54  94 CALM      29.96S
DOVER          CLOUDY    60  57  88 S7        29.90F
GEORGETOWN     CLOUDY    61  52  72 CALM      29.94R
EASTON         CLOUDY    59  59 100 CALM      29.97R
CAMBRIDGE        N/A     59  55  88 CALM      29.94R
SALISBURY      CLOUDY    59  53  80 CALM      29.92R
OCEAN CITY     CLOUDY    57  52  83 N3        29.93R
WALLOPS ISLAND CLOUDY    60  53  77 CALM      29.93R
ACCOMACK*      MOCLDY    59  54  82 CALM      29.94R
$$

NCZ012>017-030>032-240200-
NORTH CENTRAL AND EASTERN NORTH CAROLINA

CITY           SKY/WX    TMP DP  RH WIND       PRES   REMARKS
ROANOKE RAPIDS FAIR      55  54  94 CALM      29.98R
RALEIGH        PTCLDY    58  54  86 CALM      30.01R
ELIZABETH CITY CLEAR     55  53  93 SW5       29.95R
AHOSKIE*       PTCLDY    57  55  93 CALM      29.98R
EDENTON*       PTCLDY   N/A N/A N/A NW5       29.96S
CURRITUCK*     CLEAR     58  53  84 CALM      29.95S
KILL DEVIL HLS CLEAR     56  51  82 CALM      29.92S
MANTEO         CLEAR     58  53  82 N7        29.94R
CAPE HATTERAS  PTCLDY    61  53  75 N7        29.93R
TARBORO*       FAIR      56  55  95 CALM      29.99R
GOLDSBORO      CLEAR     59  55  85 N2        29.98R
WASHINGTON     CLEAR     57  54  91 NW3       29.98R
GREENVILLE     CLEAR     55  54  94 CALM      30.00R
NEW BERN       PTCLDY    58  55  90 NW5       29.98R
WILMINGTON     PTCLDY    61  55  81 NW7       29.99R
$$

VAZ048-240200-
ELSEWHERE

CITY           SKY/WX    TMP DP  RH WIND       PRES   REMARKS
HARRISBURG PA  MOCLDY    62  54  74 CALM      29.91R
BALTIMORE      CLOUDY    58  56  93 VRB5      29.94R
ANNAPOLIS      CLOUDY    59  56  89 CALM      29.94R
ANDREWS AFB    FAIR      58  57  95 S7        29.92F
PHILADELPHIA   MOCLDY    61  57  87 CALM      29.91R
HENDERSON NC   CLEAR     55  51  86 W3        30.00R
GREENSBORO     PTCLDY    61  53  75 CALM      30.02R
ROCKY MOUNT    CLEAR     55  53  93 CALM      29.98R
$$

VAZ100-240200-
MARINE

STATION/POSITION TIME  TEMP    WIND        PRES    WAVE   SWELL
                       AIR SEA DIR/SP/G            HT/PER HT/PER
                 (UTC) (F)     (DEG/KT/KT) (MB)    (FT/S) (FT/S)
BRANDYWINE LGT   0000   60     180/  4/  4 1013.1R
CAPE MAY NJ      0000   60 64   CALM  /  1 1012.9R
LEWES DE         0000   60 61  120/  3/  3 1013.0R
15NM E FENWICK I 0050   57 55              1012.9R   5/ 8
OCEAN-CITY-INLET 0000   60 60  350/  4/  5 1012.1R
WACHAPREAGUE VA  0000   60 65   80/  3/  4 1012.8R
THOMAS POINT MD  0100   60 61  340/  5/  6 1015.3R
GOOSES REEF MD   0000   61 61  310/  4/  6 1014.7R   1/ 2
COVE POINT MD    0000   60     350/ 14/ 16 1014.2R
SOLOMONS ISLAND  0000   61 62  330/  7/  9   N/A
BISHOPS HEAD MD  0000   64 63  270/  4/  4 1013.1R
PINEY POINT MD   0000          340/ 16/ 18   N/A
POTOMAC MD       0000   64 63  340/ 12/ 17 1012.3R   1
CAMBRIDGE MD     0000   62 63  290/  7/ 10 1012.6R
LEWISETTA VA     0000   65 63  340/ 10/ 12 1013.0R
RAPPAHANNOCK LGT 0000          290/  7/  8 1013.7R
STINGRAY PT      0000   64 63  280/  2/  2 1013.7R   1
YORK RVR RNG VA  0000   64     290/  6/  6 1012.9R
YORKTOWN VA      0000   63 65  220/  3/  4 1013.3R
JAMESTOWN VA     0000   63 66  240/  6/  6   N/A     0
DOMINION TERM VA 0000   65      20/  2/  3 1013.8R
KIPTOPEKE VA     0000      64  360/  1/  2   N/A
CHES BAY BRIDGE  0000   61 64   40/  4/  5 1013.5R
CAPE HENRY VA    0000   61      20/  6/  6   N/A
CHESAPEAKE LGHT  0000   59     360/ 11/ 11 1013.9R
WILLOUBY STN VA  0000   64      10/  4/  5 1014.7R
CAPE HENRY BUOY  0012      59                N/A     5/ 8   2/11
1ST LANDING BUOY 0000   61 63   50/  6/  6 1013.6R   3/ 5
CAPE CHARLES BUO 0026      60                N/A     5/ 8   5/ 8
OFFSHORE WE BUOY 0021      58                N/A     6/ 8   5/ 8
64NM E OF VA BCH 0050   56 62  340/ 16/ 17 1011.7R   8/ 9   7/ 9
DUCK PIER NC     0000   60 62  360/ 11/ 12 1012.6R
44100 DUCK FRF   0024      57                N/A     6/ 9   2/11
44056 DUCK FRF   0011      62                N/A     6/ 9   2/11
OREGON INLET NC  0000   58 65  320/  9/ 12 1013.1R
HATTERAS NC      0000   63 68  340/ 15/ 18 1012.7R
DIAMOND SHLS NC  0050   62 65  350/ 12/ 16 1013.3R   4/C1F1C2F2C3F3C4F4C5F5C6F6C7F7C8M1C9!



USA.gov is the U.S. government's official web portal to all federal, state and local government web resources and services.